Time,TemperatureF,DewpointF,PressureIn,WindDirection,WindDirectionDegrees,WindSpeedMPH,WindSpeedGustMPH,Humidity,HourlyPrecipIn,Conditions,Clouds,dailyrainin,SoftwareType,DateUTC
2013-09-30 00:07:00,40.5,34.0,30.05,SW,221,0.0,-999.0,79,-99.99,,,0.00,weatherlink.com 1.10,2013-09-30 07:07:00,
2013-09-30 00:22:00,40.7,35.0,30.05,SW,221,0.0,-999.0,79,-99.99,,,0.00,weatherlink.com 1.10,2013-09-30 07:22:00,
2013-09-30 00:37:00,40.5,34.0,30.05,SW,221,0.0,-999.0,79,-99.99,,,0.00,weatherlink.com 1.10,2013-09-30 07:37:00,
2013-09-30 00:52:00,40.2,34.0,30.05,SW,221,0.0,-999.0,79,-99.99,,,0.00,weatherlink.com 1.10,2013-09-30 07:52:00,
2013-09-30 01:07:00,39.8,34.0,30.05,SW,221,0.0,-999.0,80,-99.99,,,0.00,weatherlink.com 1.10,2013-09-30 08:07:00,
2013-09-30 01:22:00,39.3,34.0,30.05,SW,221,0.0,-999.0,80,-99.99,,,0.00,weatherlink.com 1.10,2013-09-30 08:22:00,
2013-09-30 01:38:00,39.3,34.0,30.05,SW,221,0.0,-999.0,80,-99.99,,,0.00,weatherlink.com 1.10,2013-09-30 08:38:00,
2013-09-30 01:53:00,39.0,33.0,30.04,SW,221,0.0,-999.0,80,-99.99,,,0.00,weatherlink.com 1.10,2013-09-30 08:53:00,
2013-09-30 02:08:00,38.8,33.0,30.04,SW,221,0.0,-999.0,81,-99.99,,,0.00,weatherlink.com 1.10,2013-09-30 09:08:00,
2013-09-30 02:23:00,38.5,33.0,30.03,SW,221,0.0,-999.0,81,-99.99,,,0.00,weatherlink.com 1.10,2013-09-30 09:23:00,
2013-09-30 02:38:00,38.0,33.0,30.03,SW,221,0.0,-999.0,82,-99.99,,,0.00,weatherlink.com 1.10,2013-09-30 09:38:00,
2013-09-30 02:53:00,37.6,33.0,30.03,SW,221,0.0,-999.0,82,-99.99,,,0.00,weatherlink.com 1.10,2013-09-30 09:53:00,
2013-09-30 03:08:00,37.5,33.0,30.02,SW,221,0.0,-999.0,82,-99.99,,,0.00,weatherlink.com 1.10,2013-09-30 10:08:00,
2013-09-30 03:23:00,37.6,33.0,30.02,SW,221,0.0,-999.0,82,-99.99,,,0.00,weatherlink.com 1.10,2013-09-30 10:23:00,
2013-09-30 03:38:00,37.7,32.0,30.02,SW,221,0.0,-999.0,81,-99.99,,,0.00,weatherlink.com 1.10,2013-09-30 10:38:00,
2013-09-30 03:53:00,37.7,32.0,30.02,SW,221,0.0,-999.0,81,-99.99,,,0.00,weatherlink.com 1.10,2013-09-30 10:53:00,
2013-09-30 04:08:00,37.5,33.0,30.02,SW,221,2.0,-999.0,82,-99.99,,,0.00,weatherlink.com 1.10,2013-09-30 11:08:00,
2013-09-30 04:23:00,37.4,32.0,30.02,SW,221,0.0,-999.0,82,-99.99,,,0.00,weatherlink.com 1.10,2013-09-30 11:23:00,
2013-09-30 04:38:00,37.3,32.0,30.02,SW,221,2.0,-999.0,81,-99.99,,,0.00,weatherlink.com 1.10,2013-09-30 11:38:00,
2013-09-30 04:53:00,37.5,32.0,30.02,SW,221,0.0,-999.0,81,-99.99,,,0.00,weatherlink.com 1.10,2013-09-30 11:53:00,
2013-09-30 05:08:00,37.1,32.0,30.02,SW,221,1.0,-999.0,81,-99.99,,,0.00,weatherlink.com 1.10,2013-09-30 12:08:00,
2013-09-30 05:23:00,36.8,32.0,30.02,SW,221,0.0,-999.0,82,-99.99,,,0.00,weatherlink.com 1.10,2013-09-30 12:23:00,
2013-09-30 05:38:00,36.8,32.0,30.02,SW,221,0.0,-999.0,82,-99.99,,,0.00,weatherlink.com 1.10,2013-09-30 12:38:00,
2013-09-30 05:53:00,36.5,32.0,30.02,SW,221,0.0,-999.0,82,-99.99,,,0.00,weatherlink.com 1.10,2013-09-30 12:53:00,
2013-09-30 06:08:00,36.2,32.0,30.02,SW,221,0.0,-999.0,83,-99.99,,,0.00,weatherlink.com 1.10,2013-09-30 13:08:00,
2013-09-30 06:23:00,36.0,31.0,30.01,SW,221,0.0,-999.0,83,-99.99,,,0.00,weatherlink.com 1.10,2013-09-30 13:23:00,
2013-09-30 06:38:00,35.8,31.0,30.01,SW,221,1.0,-999.0,84,-99.99,,,0.00,weatherlink.com 1.10,2013-09-30 13:38:00,
2013-09-30 06:53:00,36.3,32.0,30.02,NNE,13,0.0,-999.0,83,-99.99,,,0.00,weatherlink.com 1.10,2013-09-30 13:53:00,
2013-09-30 07:08:00,36.9,32.0,30.02,NNE,13,0.0,-999.0,82,-99.99,,,0.00,weatherlink.com 1.10,2013-09-30 14:08:00,
2013-09-30 07:23:00,37.6,33.0,30.02,NNE,13,0.0,-999.0,82,-99.99,,,0.00,weatherlink.com 1.10,2013-09-30 14:23:00,
2013-09-30 07:38:00,39.5,34.0,30.02,NNE,13,0.0,-999.0,81,-99.99,,,0.00,weatherlink.com 1.10,2013-09-30 14:38:00,
2013-09-30 07:53:00,42.2,36.0,30.03,NNE,13,0.0,-999.0,80,-99.99,,,0.00,weatherlink.com 1.10,2013-09-30 14:53:00,
2013-09-30 08:08:00,45.6,38.0,30.03,NNE,13,0.0,-999.0,75,-99.99,,,0.00,weatherlink.com 1.10,2013-09-30 15:08:00,
2013-09-30 08:23:00,48.2,39.0,30.03,NNE,13,0.0,-999.0,71,-99.99,,,0.00,weatherlink.com 1.10,2013-09-30 15:23:00,
2013-09-30 08:38:00,51.7,38.0,30.04,NNE,13,0.0,-999.0,60,-99.99,,,0.00,weatherlink.com 1.10,2013-09-30 15:38:00,
2013-09-30 08:53:00,55.2,39.0,30.04,NNE,13,0.0,-999.0,54,-99.99,,,0.00,weatherlink.com 1.10,2013-09-30 15:53:00,
2013-09-30 09:08:00,57.5,37.0,30.03,SSW,208,1.0,-999.0,46,-99.99,,,0.00,weatherlink.com 1.10,2013-09-30 16:08:00,
2013-09-30 09:24:00,59.3,37.0,30.03,SSW,194,0.0,-999.0,43,-99.99,,,0.00,weatherlink.com 1.10,2013-09-30 16:24:00,
2013-09-30 09:39:00,60.4,36.0,30.03,SSW,201,1.0,-999.0,41,-99.99,,,0.00,weatherlink.com 1.10,2013-09-30 16:39:00,
2013-09-30 09:54:00,61.4,36.0,30.03,SSE,160,2.0,-999.0,39,-99.99,,,0.00,weatherlink.com 1.10,2013-09-30 16:54:00,
2013-09-30 10:09:00,61.8,31.0,30.03,SW,223,2.0,-999.0,32,-99.99,,,0.00,weatherlink.com 1.10,2013-09-30 17:09:00,
2013-09-30 10:24:00,61.8,30.0,30.02,SW,223,0.0,-999.0,30,-99.99,,,0.00,weatherlink.com 1.10,2013-09-30 17:24:00,
2013-09-30 10:39:00,62.4,31.0,30.02,NW,304,1.0,-999.0,31,-99.99,,,0.00,weatherlink.com 1.10,2013-09-30 17:39:00,
2013-09-30 10:54:00,62.9,29.0,30.02,WSW,252,1.0,-999.0,28,-99.99,,,0.00,weatherlink.com 1.10,2013-09-30 17:54:00,
2013-09-30 11:09:00,63.4,30.0,30.02,SSE,152,0.0,-999.0,28,-99.99,,,0.00,weatherlink.com 1.10,2013-09-30 18:09:00,
2013-09-30 11:24:00,64.6,29.0,30.02,West,269,0.0,-999.0,26,-99.99,,,0.00,weatherlink.com 1.10,2013-09-30 18:24:00,
2013-09-30 11:39:00,65.0,29.0,30.02,SSE,158,0.0,-999.0,26,-99.99,,,0.00,weatherlink.com 1.10,2013-09-30 18:39:00,
2013-09-30 11:54:00,66.1,30.0,30.01,SSW,208,1.0,-999.0,26,-99.99,,,0.00,weatherlink.com 1.10,2013-09-30 18:54:00,
2013-09-30 12:09:00,66.9,30.0,30.00,SSW,202,2.0,-999.0,25,-99.99,,,0.00,weatherlink.com 1.10,2013-09-30 19:09:00,
2013-09-30 12:24:00,67.4,28.0,30.00,SSW,196,0.0,-999.0,23,-99.99,,,0.00,weatherlink.com 1.10,2013-09-30 19:24:00,
2013-09-30 12:39:00,68.3,30.0,29.99,SSE,158,2.0,-999.0,24,-99.99,,,0.00,weatherlink.com 1.10,2013-09-30 19:39:00,
2013-09-30 12:54:00,68.4,28.0,29.99,WSW,248,0.0,-999.0,22,-99.99,,,0.00,weatherlink.com 1.10,2013-09-30 19:54:00,
2013-09-30 13:09:00,68.4,28.0,29.98,SSE,162,2.0,-999.0,22,-99.99,,,0.00,weatherlink.com 1.10,2013-09-30 20:09:00,
2013-09-30 13:24:00,68.3,31.0,29.97,West,263,3.0,-999.0,25,-99.99,,,0.00,weatherlink.com 1.10,2013-09-30 20:24:00,
2013-09-30 13:39:00,69.2,30.0,29.97,WSW,254,3.0,-999.0,23,-99.99,,,0.00,weatherlink.com 1.10,2013-09-30 20:39:00,
2013-09-30 13:54:00,69.7,32.0,29.96,SSE,154,4.0,-999.0,25,-99.99,,,0.00,weatherlink.com 1.10,2013-09-30 20:54:00,
2013-09-30 14:09:00,69.8,30.0,29.96,West,267,3.0,-999.0,23,-99.99,,,0.00,weatherlink.com 1.10,2013-09-30 21:09:00,
2013-09-30 14:24:00,69.5,29.0,29.96,South,176,3.0,-999.0,22,-99.99,,,0.00,weatherlink.com 1.10,2013-09-30 21:24:00,
2013-09-30 14:39:00,70.0,28.0,29.96,SE,130,3.0,-999.0,21,-99.99,,,0.00,weatherlink.com 1.10,2013-09-30 21:39:00,
2013-09-30 14:54:00,70.7,28.0,29.95,WNW,285,1.0,-999.0,20,-99.99,,,0.00,weatherlink.com 1.10,2013-09-30 21:54:00,
2013-09-30 15:09:00,71.3,27.0,29.95,SW,235,0.0,-999.0,19,-99.99,,,0.00,weatherlink.com 1.10,2013-09-30 22:09:00,
2013-09-30 15:39:00,71.0,27.0,29.94,ESE,110,3.0,-999.0,19,-99.99,,,0.00,weatherlink.com 1.10,2013-09-30 22:39:00,
2013-09-30 15:54:00,71.5,24.0,29.94,WSW,258,3.0,-999.0,17,-99.99,,,0.00,weatherlink.com 1.10,2013-09-30 22:54:00,
2013-09-30 16:09:00,70.6,26.0,29.94,WSW,254,2.0,-999.0,19,-99.99,,,0.00,weatherlink.com 1.10,2013-09-30 23:09:00,
2013-09-30 16:25:00,69.7,27.0,29.94,SE,144,0.0,-999.0,20,-99.99,,,0.00,weatherlink.com 1.10,2013-09-30 23:25:00,
2013-09-30 16:40:00,69.5,27.0,29.94,SW,234,1.0,-999.0,20,-99.99,,,0.00,weatherlink.com 1.10,2013-09-30 23:40:00,
2013-09-30 16:55:00,69.1,27.0,29.94,WSW,241,1.0,-999.0,21,-99.99,,,0.00,weatherlink.com 1.10,2013-09-30 23:55:00,
2013-09-30 17:10:00,69.1,29.0,29.93,SW,235,0.0,-999.0,22,-99.99,,,0.00,weatherlink.com 1.10,2013-10-01 00:10:00,
2013-09-30 17:25:00,68.8,29.0,29.93,SW,220,0.0,-999.0,23,-99.99,,,0.00,weatherlink.com 1.10,2013-10-01 00:25:00,
2013-09-30 17:40:00,68.6,30.0,29.93,SW,220,0.0,-999.0,24,-99.99,,,0.00,weatherlink.com 1.10,2013-10-01 00:40:00,
2013-09-30 17:55:00,67.5,34.0,29.93,SW,220,0.0,-999.0,29,-99.99,,,0.00,weatherlink.com 1.10,2013-10-01 00:55:00,
2013-09-30 18:10:00,64.5,35.0,29.93,SW,220,0.0,-999.0,33,-99.99,,,0.00,weatherlink.com 1.10,2013-10-01 01:10:00,
2013-09-30 18:25:00,61.3,36.0,29.93,SW,220,0.0,-999.0,39,-99.99,,,0.00,weatherlink.com 1.10,2013-10-01 01:25:00,
2013-09-30 18:40:00,58.1,36.0,29.93,SW,220,0.0,-999.0,44,-99.99,,,0.00,weatherlink.com 1.10,2013-10-01 01:40:00,
2013-09-30 18:55:00,55.5,36.0,29.93,SW,220,0.0,-999.0,49,-99.99,,,0.00,weatherlink.com 1.10,2013-10-01 01:55:00,
2013-09-30 19:10:00,53.6,37.0,29.93,SW,220,0.0,-999.0,53,-99.99,,,0.00,weatherlink.com 1.10,2013-10-01 02:10:00,
2013-09-30 19:25:00,51.9,36.0,29.94,SW,220,2.0,-999.0,55,-99.99,,,0.00,weatherlink.com 1.10,2013-10-01 02:25:00,
2013-09-30 19:40:00,50.6,35.0,29.94,SW,220,0.0,-999.0,56,-99.99,,,0.00,weatherlink.com 1.10,2013-10-01 02:40:00,
2013-09-30 19:55:00,49.4,35.0,29.94,SW,220,0.0,-999.0,59,-99.99,,,0.00,weatherlink.com 1.10,2013-10-01 02:55:00,
2013-09-30 20:10:00,48.1,35.0,29.94,SW,220,0.0,-999.0,62,-99.99,,,0.00,weatherlink.com 1.10,2013-10-01 03:10:00,
2013-09-30 20:25:00,47.1,35.0,29.94,SW,220,1.0,-999.0,64,-99.99,,,0.00,weatherlink.com 1.10,2013-10-01 03:25:00,
2013-09-30 20:40:00,46.4,34.0,29.95,SW,220,0.0,-999.0,63,-99.99,,,0.00,weatherlink.com 1.10,2013-10-01 03:40:00,
2013-09-30 20:55:00,46.1,34.0,29.96,SW,220,0.0,-999.0,64,-99.99,,,0.00,weatherlink.com 1.10,2013-10-01 03:55:00,
2013-09-30 21:10:00,46.0,34.0,29.97,SW,220,0.0,-999.0,64,-99.99,,,0.00,weatherlink.com 1.10,2013-10-01 04:10:00,
2013-09-30 21:25:00,45.4,35.0,29.97,SW,220,1.0,-999.0,66,-99.99,,,0.00,weatherlink.com 1.10,2013-10-01 04:25:00,
2013-09-30 21:40:00,44.2,34.0,29.97,SW,220,0.0,-999.0,68,-99.99,,,0.00,weatherlink.com 1.10,2013-10-01 04:40:00,
2013-09-30 21:55:00,43.3,34.0,29.97,SW,220,0.0,-999.0,70,-99.99,,,0.00,weatherlink.com 1.10,2013-10-01 04:55:00,
2013-09-30 22:10:00,42.7,34.0,29.96,SW,220,0.0,-999.0,70,-99.99,,,0.00,weatherlink.com 1.10,2013-10-01 05:10:00,
2013-09-30 22:25:00,42.5,33.0,29.96,SW,220,0.0,-999.0,70,-99.99,,,0.00,weatherlink.com 1.10,2013-10-01 05:25:00,
2013-09-30 22:40:00,42.4,33.0,29.96,SW,220,0.0,-999.0,69,-99.99,,,0.00,weatherlink.com 1.10,2013-10-01 05:40:00,
2013-09-30 22:55:00,41.9,33.0,29.97,SW,220,0.0,-999.0,71,-99.99,,,0.00,weatherlink.com 1.10,2013-10-01 05:55:00,
2013-09-30 23:10:00,41.1,33.0,29.96,SW,220,1.0,-999.0,72,-99.99,,,0.00,weatherlink.com 1.10,2013-10-01 06:10:00,
2013-09-30 23:25:00,40.6,32.0,29.96,SW,220,0.0,-999.0,72,-99.99,,,0.00,weatherlink.com 1.10,2013-10-01 06:25:00,
2013-09-30 23:40:00,40.1,32.0,29.96,SW,220,0.0,-999.0,73,-99.99,,,0.00,weatherlink.com 1.10,2013-10-01 06:40:00,
2013-09-30 23:55:00,39.9,32.0,29.96,NNW,340,0.0,-999.0,74,-99.99,,,0.00,weatherlink.com 1.10,2013-10-01 06:55:00,